Regional Weather Roundup
Issued by NWS

Home | Current Version | Previous Version | Text Only | Print | Product List | Glossary Off
Versions: 1 2 3 4 5 6 7 8 9 10 11 12 13 14 15 16 17 18 19 20 21 22 23 24 25 26 27 28 29 30 31 32 33 34 35 36 37 38 39 40 41 42 43 44 45 46 47 48 49 50

000
ASUS43 KDMX 190601
RWRIA

WEATHER ROUNDUP FOR IOWA
NATIONAL WEATHER SERVICE DES MOINES IA
1200 AM CST THU JAN 19 2017

NOTE: "FAIR" INDICATES FEW OR NO CLOUDS BELOW 12,000 FEET WITH NO
SIGNIFICANT WEATHER AND/OR OBSTRUCTIONS TO VISIBILITY.

* - THESE STATIONS ARE NOT NWS STATIONS...THUS NOT UNDER NWS
QUALITY CONTROL.  THEY ALSO DO NOT REPORT WEATHER SUCH
AS PRECIPITATION OR FOG.

IAZ001>003-012>014-020>022-031>034-043>046-190700-
   NORTHWEST IOWA

CITY           SKY/WX    TMP DP  RH WIND       PRES   REMARKS
CARROLL *      CLEAR     37  36  93 S17       29.86F WCI  28
CHEROKEE *     CLEAR     35  34  97 S3        29.84S
DENISON *      CLEAR     36  34  93 S8        29.85F WCI  29
LE MARS *      CLEAR     37  34  87 S9        29.83S WCI  31
ORANGE CITY *  CLEAR     36  36 100 S9        29.81F WCI  29
SHELDON *      CLEAR     36  36 100 S10       29.79F WCI  28
SIOUX CITY     CLEAR     38  35  89 SE12      29.83F WCI  30
6HR MIN TEMP:  34; 6HR MAX TEMP:  43;

SPENCER        CLEAR     36  33  89 S9        29.82F WCI  29
6HR MIN TEMP:  34; 6HR MAX TEMP:  38;

STORM LAKE *   CLEAR     36  34  93 S14       29.84F WCI  27
$$

IAZ055>058-069>071-079>083-090>094-190700-
   SOUTHWEST IOWA

CITY           SKY/WX    TMP DP  RH WIND       PRES   REMARKS
ATLANTIC *     CLEAR     36  36 100 S8        29.90S WCI  29
AUDUBON *      CLEAR     37  34  87 S10       29.89F WCI  30
CLARINDA *     CLEAR     36  36 100 S3        29.94F
COUNCIL BLFS * CLEAR     34  34 100 SE7       29.87F WCI  28
CRESTON *      FOG       36  36 100 S13G20    29.94F VSB 1/4 WCI  27
HARLAN  *      CLEAR     36  36 100 S3        29.92S
LAMONI         FOG       34  34 100 S7        29.94F VSB 1/4 WCI  28
6HR MIN TEMP:  34; 6HR MAX TEMP:  36;

RED OAK *      CLEAR     36  36 100 S9        29.91S WCI  29
SHENANDOAH *   PTCLDY    36  34  93 S10       29.92F FOG     WCI  28
$$

IAZ047>049-059>061-072>074-084-190700-
   CENTRAL IOWA

CITY           SKY/WX    TMP DP  RH WIND       PRES   REMARKS
AMES           CLOUDY    33  33 100 S10       29.93F FOG     WCI  25
6HR MIN TEMP:  33; 6HR MAX TEMP:  38;

ANKENY *       FOG       34  34 100 S9        29.95F VSB 1/4 WCI  26
BOONE *        FOG       34  34 100 S10       29.91R VSB 1/4 WCI  26
CHARITON *     FOG       34  34 100 S6        29.95F VSB 1/4 WCI  29
DES MOINES     FOG       36  35  96 S12       29.95S VSB 1/2 WCI  28
6HR MIN TEMP:  34; 6HR MAX TEMP:  39;

GRINNELL*      FOG       32  32 100 S8        29.96F VSB 1/4 WCI  25
KNOXVILLE *    FOG       36  34  93 S8        29.94F VSB 1/4 WCI  29
MARSHALLTOWN   FOG       32  32 100 S12       29.94S VSB 3/4 WCI  23
6HR MIN TEMP:  32; 6HR MAX TEMP:  39;

NEWTON *       FOG       34  34 100 S10       29.94F VSB<1/4 WCI  26
PELLA *        FOG       34  33  98 S7        29.98S VSB 1/2 WCI  28
PERRY *        FOG       34  34 100 SE9       29.92R VSB 3/4 WCI  27
$$

IAZ004>006-015-016-023>025-035-036-190700-
   NORTH CENTRAL IOWA

CITY           SKY/WX    TMP DP  RH WIND       PRES   REMARKS
ALGONA *       CLEAR     34  34 100 S15       29.86S FOG     WCI  24
CLARION *      PTCLDY    34  34 100 S14       29.89S FOG     WCI  24
ESTHERVILLE    CLEAR     33  33 100 S13       29.82S WCI  24
6HR MIN TEMP:  33; 6HR MAX TEMP:  36;

FORT DODGE *   CLEAR     36  30  80 S9        29.89F WCI  29
MASON CITY     CLEAR     32  30  92 S7        29.89F WCI  26
6HR MIN TEMP:  31; 6HR MAX TEMP:  34;

FOREST CITY *    N/A     32  32 100 S6        29.87F WCI  26
WEBSTER CITY * CLEAR     34  34 100 SE9       29.89R FOG     WCI  26
IOWA FALLS *   MOCLDY    34  32  94 S10       29.92S FOG     WCI  26
$$

IAZ007>011-017>019-026>030-037>042-050>054-066-190700-
   NORTHEAST IOWA

CITY           SKY/WX    TMP DP  RH WIND       PRES   REMARKS
CEDAR RAPIDS   FOG       32  32 100 S10       29.97S VSB 1/4 WCI  24
6HR MIN TEMP:  31; 6HR MAX TEMP:  35;

CHARLES CITY * CLEAR     32  32 100 S13       29.91F FOG     WCI  22
CLINTON *      CLEAR     29  28  96 SE6       30.02F FOG     WCI  23
DECORAH *      CLEAR     34  34 100 S8        29.91F WCI  27
DUBUQUE        FOG       32  32 100 S13       29.97S VSB 3/4 WCI  22
6HR MIN TEMP:  31; 6HR MAX TEMP:  33;

MONTICELLO *   CLOUDY    34  34 100 S7        29.98F FOG     WCI  28
OELWEIN *      CLOUDY    32  32 100 S10       29.95R FOG     WCI  24
WATERLOO       CLEAR     32  31  96 S7        29.94S WCI  26
6HR MIN TEMP:  32; 6HR MAX TEMP:  34;

$$

IAZ064-065-067-068-078-190700-
   EAST CENTRAL IOWA

CITY           SKY/WX    TMP DP  RH WIND       PRES   REMARKS
DAVENPORT      CLEAR     31  30  96 S6        30.01F FOG     WCI  25
6HR MIN TEMP:  28; 6HR MAX TEMP:  35;

IOWA CITY      FOG       33  33 100 SE3       30.01F VSB 1/4
6HR MIN TEMP:  28; 6HR MAX TEMP:  37;

MUSCATINE *    FOG       27  25  93 CALM      30.02F VSB<1/4
QUAD CITIES    CLEAR     27  26  96 CALM      30.01F FOG
6HR MIN TEMP:  26; 6HR MAX TEMP:  38;

$$

IAZ062-063-075>077-085>089-095>099-190700-
   SOUTHEAST IOWA

CITY           SKY/WX    TMP DP  RH WIND       PRES   REMARKS
BURLINGTON     CLOUDY    34  34 100 S6        30.00F WCI  29
6HR MIN TEMP:  30; 6HR MAX TEMP:  38;

FAIRFIELD *    CLOUDY    34  32  93 S8        29.99F FOG     WCI  27
FORT MADISON * CLEAR     36  34  93 SE3       30.01F
KEOKUK *       CLOUDY    34  34 100 SE6       30.00F WCI  29
OSKALOOSA *    FOG       32  32 100 S7        29.99S VSB 1/4 WCI  26
OTTUMWA        FOG       33  32  96 S3        29.97F VSB 1/4
6HR MIN TEMP:  33; 6HR MAX TEMP:  36;

WASHINGTON *   FOG       30  30 100 S6        30.01S VSB 1/4 WCI  24
$$

ABBREVIATIONS USED IN REMARKS
   TC - TEMPERATURES IN CELSIUS
  WCI - WIND CHILL INDEX
   HX - HEAT INDEX
  VSB - VISIBILITY
$$





USA.gov is the U.S. government's official web portal to all federal, state and local government web resources and services.